DL9BGG-13 Weather Reports


Display with metric or nautical units.
time (UTC)temp
F
wind
direction
speed
MPH
gust
MPH
rain 1hr
in
rain 24hr
in
rain mn
in
humidity
%
barometer
mb
20260904214400 64 315 9.0 0.0 0.00 0.73 0.00 73 1055.8
20260904214253 64 292 12.0 0.0 0.00 0.73 0.00 73 1055.8
20260904214133 64 292 13.0 0.0 0.00 0.73 0.00 73 1055.7
20260904214027 64 315 6.0 0.0 0.00 0.73 0.00 73 1055.7
20260904213859 64 292 10.0 0.0 0.00 0.73 0.00 73 1055.7
20260904213752 64 315 8.0 0.0 0.00 0.73 0.00 73 1055.8
20260904213637 64 270 2.0 0.0 0.00 0.73 0.00 73 1055.7
20260904213518 64 315 8.0 0.0 0.00 0.73 0.00 73 1055.7
20260904213413 64 270 8.0 0.0 0.00 0.73 0.00 73 1055.6
20260904213306 64 292 15.0 0.0 0.00 0.73 0.00 73 1055.7
20260904213153 64 292 9.0 0.0 0.00 0.73 0.00 73 1055.7
20260904213040 64 247 7.0 0.0 0.00 0.73 0.00 73 1055.7
20260904212935 64 315 5.0 0.0 0.00 0.73 0.00 74 1055.7
20260904212823 64 292 10.0 0.0 0.00 0.73 0.00 74 1055.7
20260904212716 64 292 6.0 0.0 0.00 0.73 0.00 74 1055.7
20260904212603 64 292 8.0 0.0 0.00 0.73 0.00 75 1055.6
20260904212450 64 315 20.0 0.0 0.00 0.73 0.00 75 1055.7
20260904212329 64 315 11.0 0.0 0.00 0.73 0.00 76 1055.7
20260904212217 64 292 8.0 0.0 0.00 0.73 0.00 76 1055.6
20260904212114 64 292 8.0 0.0 0.00 0.73 0.00 75 1055.7
20260904212008 64 0 11.0 0.0 0.00 0.73 0.00 75 1055.6
20260904211855 64 315 6.0 0.0 0.00 0.73 0.00 75 1055.7
20260904211749 64 315 6.0 0.0 0.00 0.73 0.00 75 1055.7
20260904211643 64 0 3.0 0.0 0.00 0.73 0.00 75 1055.7
20260904211530 64 315 0.0 0.0 0.00 0.73 0.00 74 1055.6
20260904211416 64 337 16.0 0.0 0.00 0.73 0.00 74 1055.5
20260904211255 64 112 0.0 0.0 0.00 0.73 0.00 73 1055.6
20260904211144 64 292 9.0 0.0 0.00 0.73 0.00 73 1055.5
20260904211037 64 0 4.0 0.0 0.00 0.73 0.00 73 1055.6
20260904210911 64 270 8.0 0.0 0.00 0.73 0.00 73 1055.6
20260904210804 64 0 4.0 0.0 0.00 0.73 0.00 73 1055.5
20260904210650 64 315 13.0 0.0 0.00 0.73 0.00 73 1055.6
20260904210531 64 315 6.0 0.0 0.00 0.73 0.00 73 1055.5
20260904210425 64 22 4.0 0.0 0.00 0.73 0.00 73 1055.5
20260904210310 64 337 11.0 0.0 0.00 0.73 0.00 74 1055.5
20260904210158 64 292 10.0 0.0 0.00 0.73 0.00 74 1055.5
20260904210055 64 0 4.0 0.0 0.00 0.73 0.00 74 1055.5
20260904205948 64 292 8.0 0.0 0.00 0.73 0.00 74 1055.5
20260904205842 64 292 8.0 0.0 0.00 0.73 0.00 74 1055.5
20260904205724 64 337 2.0 0.0 0.00 0.73 0.00 74 1055.4
20260904205608 64 270 4.0 0.0 0.00 0.73 0.00 74 1055.4
20260904205455 64 270 10.0 0.0 0.00 0.73 0.00 75 1055.5
20260904205342 64 270 9.0 0.0 0.00 0.73 0.00 75 1055.5
20260904205229 64 270 9.0 0.0 0.00 0.73 0.00 76 1055.5
20260904205114 64 292 8.0 0.0 0.00 0.73 0.00 76 1055.5
20260904205005 64 315 5.0 0.0 0.00 0.73 0.00 76 1055.5
20260904204849 64 270 12.0 0.0 0.00 0.73 0.00 76 1055.5
20260904204737 64 292 12.0 0.0 0.00 0.73 0.00 76 1055.5
20260904204623 64 292 7.0 0.0 0.00 0.73 0.00 76 1055.5
20260904204512 64 292 6.0 0.0 0.00 0.73 0.00 76 1055.5
20260904204406 64 315 8.0 0.0 0.00 0.73 0.00 76 1055.5
20260904204300 64 202 0.0 0.0 0.00 0.73 0.00 76 1055.5
20260904204155 64 292 10.0 0.0 0.00 0.73 0.00 76 1055.5
20260904204034 64 292 8.0 0.0 0.00 0.73 0.00 76 1055.4
20260904203921 64 292 8.0 0.0 0.00 0.73 0.00 76 1055.4
20260904203808 64 292 6.0 0.0 0.00 0.73 0.00 76 1055.4
20260904203654 64 247 12.0 0.0 0.00 0.73 0.00 76 1055.3
20260904203533 64 270 3.0 0.0 0.00 0.73 0.00 76 1055.3
20260904203420 64 292 15.0 0.0 0.00 0.73 0.00 75 1055.2
20260904203301 64 315 8.0 0.0 0.00 0.73 0.00 75 1055.3
20260904203155 64 292 8.0 0.0 0.00 0.73 0.00 75 1055.2
20260904203049 65 292 5.0 0.0 0.00 0.73 0.00 75 1055.2
20260904202938 65 315 9.0 0.0 0.00 0.73 0.00 74 1055.2
20260904202831 65 270 3.0 0.0 0.00 0.73 0.00 74 1055.2
20260904202717 65 292 8.0 0.0 0.00 0.73 0.00 74 1055.3
20260904202607 65 225 6.0 0.0 0.00 0.73 0.00 73 1055.3
20260904202459 65 22 6.0 0.0 0.00 0.73 0.00 74 1055.2
20260904202340 65 270 12.0 0.0 0.00 0.73 0.00 74 1055.2
20260904202234 65 292 16.0 0.0 0.00 0.73 0.00 74 1055.1
20260904202121 65 247 8.0 0.0 0.00 0.73 0.00 74 1055.2
20260904202015 64 270 10.0 0.0 0.00 0.73 0.00 74 1055.2
20260904201910 64 292 7.0 0.0 0.00 0.73 0.00 74 1055.3
20260904201750 64 292 13.0 0.0 0.00 0.73 0.00 75 1055.3
20260904201645 64 292 8.0 0.0 0.00 0.73 0.00 75 1055.3
20260904201540 64 315 0.0 0.0 0.00 0.73 0.00 75 1055.2
20260904201426 64 292 5.0 0.0 0.00 0.73 0.00 75 1055.2
20260904201312 64 247 15.0 0.0 0.00 0.73 0.00 75 1055.3
20260904201152 64 315 6.0 0.0 0.00 0.73 0.00 75 1055.2
20260904201046 64 270 8.0 0.0 0.00 0.73 0.00 75 1055.2
20260904200926 65 292 6.0 0.0 0.00 0.73 0.00 75 1055.1
20260904200821 64 292 12.0 0.0 0.00 0.73 0.00 76 1055.1
20260904200716 65 292 12.0 0.0 0.00 0.73 0.00 77 1055.2
20260904200610 65 270 9.0 0.0 0.00 0.73 0.00 76 1055.0
20260904200441 65 315 3.0 0.0 0.00 0.73 0.00 76 1055.1
20260904200327 65 337 8.0 0.0 0.00 0.73 0.00 76 1055.1
20260904200217 65 292 15.0 0.0 0.00 0.73 0.00 76 1055.0
20260904200103 65 0 8.0 0.0 0.00 0.73 0.00 75 1055.0
20260904195957 65 270 3.0 0.0 0.00 0.73 0.00 75 1055.0
20260904195846 65 337 13.0 0.0 0.00 0.73 0.00 75 1055.0
20260904195739 65 315 7.0 0.0 0.00 0.73 0.00 75 1055.0
20260904195624 65 337 6.0 0.0 0.00 0.73 0.00 75 1055.0
20260904195512 65 292 6.0 0.0 0.00 0.73 0.00 75 1055.1
20260904195352 65 270 5.0 0.0 0.00 0.73 0.00 74 1055.0
20260904195246 65 337 4.0 0.0 0.00 0.73 0.00 74 1054.9
20260904195132 65 292 11.0 0.0 0.00 0.73 0.00 74 1055.0
20260904195012 65 292 6.0 0.0 0.00 0.73 0.00 74 1055.0
20260904194859 65 292 9.0 0.0 0.00 0.73 0.00 74 1055.0
20260904194745 65 315 13.0 0.0 0.00 0.73 0.00 74 1054.9
20260904194624 65 337 13.0 0.0 0.00 0.73 0.00 74 1054.9
20260904194511 65 315 6.0 0.0 0.00 0.73 0.00 74 1054.9
20260904194359 65 202 0.0 0.0 0.00 0.73 0.00 74 1054.9
20260904194252 65 337 7.0 0.0 0.00 0.73 0.00 74 1054.8
20260904194126 65 337 5.0 0.0 0.00 0.73 0.00 73 1054.7
20260904194018 65 292 8.0 0.0 0.00 0.73 0.00 74 1054.8
20260904193905 65 292 16.0 0.0 0.00 0.73 0.00 74 1054.8
20260904193746 65 270 11.0 0.0 0.00 0.73 0.00 75 1054.9
20260904193631 65 315 2.0 0.0 0.00 0.73 0.00 75 1054.9
20260904193518 65 315 14.0 0.0 0.00 0.73 0.00 75 1054.8
20260904193405 65 270 5.0 0.0 0.00 0.73 0.00 74 1054.7
20260904193252 65 337 3.0 0.0 0.00 0.73 0.00 74 1054.7
20260904193140 65 337 9.0 0.0 0.00 0.73 0.00 75 1054.6
20260904193033 65 315 8.0 0.0 0.00 0.73 0.00 74 1054.6
20260904192912 65 292 13.0 0.0 0.00 0.73 0.00 75 1054.6
20260904192801 65 270 12.0 0.0 0.00 0.73 0.00 75 1054.5
20260904192654 65 337 5.0 0.0 0.00 0.73 0.00 75 1054.5
20260904192541 65 270 8.0 0.0 0.00 0.73 0.00 75 1054.5
20260904192427 65 315 20.0 0.0 0.00 0.73 0.00 75 1054.6
20260904192306 65 315 8.0 0.0 0.00 0.73 0.00 75 1054.6
20260904192155 65 292 16.0 0.0 0.00 0.73 0.00 76 1054.5
20260904192048 65 247 11.0 0.0 0.00 0.73 0.00 76 1054.5
20260904191938 65 270 9.0 0.0 0.00 0.73 0.00 76 1054.5
20260904191830 64 337 14.0 0.0 0.00 0.73 0.00 76 1054.5
20260904191711 64 292 9.0 0.0 0.00 0.73 0.00 76 1054.5
20260904191606 64 315 10.0 0.0 0.00 0.73 0.00 76 1054.4
20260904191459 64 315 7.0 0.0 0.00 0.73 0.00 76 1054.5
20260904191356 64 337 15.0 0.0 0.00 0.73 0.00 76 1054.5
20260904191249 64 247 5.0 0.0 0.00 0.73 0.00 76 1054.5
20260904191128 64 315 11.0 0.0 0.00 0.73 0.00 76 1054.4
20260904191023 64 292 9.0 0.0 0.00 0.73 0.00 76 1054.4
20260904190917 64 270 12.0 0.0 0.00 0.73 0.00 76 1054.4
20260904190748 64 292 14.0 0.0 0.00 0.73 0.00 76 1054.4
20260904190635 64 270 4.0 0.0 0.00 0.73 0.00 76 1054.4
20260904190515 64 337 8.0 0.0 0.00 0.73 0.00 76 1054.4
20260904190411 64 292 8.0 0.0 0.00 0.73 0.00 76 1054.4
20260904190304 64 247 8.0 0.0 0.00 0.73 0.00 76 1054.4
20260904190151 64 292 4.0 0.0 0.00 0.73 0.00 76 1054.4
20260904190030 64 315 5.0 0.0 0.00 0.73 0.00 76 1054.3
20260904185917 64 292 20.0 0.0 0.00 0.73 0.00 76 1054.4
20260904185812 64 270 14.0 0.0 0.00 0.73 0.00 76 1054.3
20260904185700 64 337 0.0 0.0 0.00 0.73 0.00 76 1054.3
20260904185553 64 270 12.0 0.0 0.00 0.73 0.00 76 1054.4
20260904185440 64 337 3.0 0.0 0.00 0.73 0.00 76 1054.4
20260904185327 64 315 0.0 0.0 0.00 0.73 0.00 76 1054.3
20260904185222 64 315 3.0 0.0 0.00 0.73 0.00 76 1054.3
20260904185109 64 292 9.0 0.0 0.00 0.73 0.00 76 1054.3
20260904184958 64 270 11.0 0.0 0.00 0.73 0.00 76 1054.3
20260904184850 64 315 0.0 0.0 0.00 0.73 0.00 76 1054.3
20260904184722 64 315 7.0 0.0 0.00 0.73 0.00 76 1054.2
20260904184608 64 315 0.0 0.0 0.00 0.73 0.00 76 1054.2
20260904184455 64 270 19.0 0.0 0.00 0.73 0.00 76 1054.3
20260904184336 64 292 7.0 0.0 0.00 0.73 0.00 76 1054.3
20260904184221 64 292 6.0 0.0 0.00 0.73 0.00 75 1054.2
20260904184108 64 337 12.0 0.0 0.00 0.73 0.00 76 1054.2
20260904183939 64 292 8.0 0.0 0.00 0.73 0.00 76 1054.2
20260904183825 64 315 19.0 0.0 0.00 0.73 0.00 76 1054.2
20260904183704 64 292 5.0 0.0 0.00 0.73 0.00 76 1054.1
20260904183551 64 270 6.0 0.0 0.00 0.73 0.00 76 1054.1
20260904183438 64 270 12.0 0.0 0.00 0.73 0.00 76 1054.1
20260904183333 64 315 12.0 0.0 0.00 0.73 0.00 75 1054.2
20260904183220 64 292 4.0 0.0 0.00 0.73 0.00 75 1054.2
20260904183114 64 337 4.0 0.0 0.00 0.73 0.00 75 1054.2
20260904182953 64 292 16.0 0.0 0.00 0.73 0.00 76 1054.1
20260904182834 64 315 23.0 0.0 0.00 0.73 0.00 75 1054.1
20260904182719 64 315 5.0 0.0 0.00 0.73 0.00 75 1054.1
20260904182606 64 292 21.0 0.0 0.00 0.73 0.00 75 1054.0
20260904182453 64 292 12.0 0.0 0.00 0.73 0.00 75 1054.0
20260904182340 64 292 7.0 0.0 0.00 0.73 0.00 75 1054.1
20260904182234 64 292 14.0 0.0 0.00 0.73 0.00 75 1054.1
20260904182124 64 315 8.0 0.0 0.00 0.73 0.00 76 1054.0
20260904182018 64 292 20.0 0.0 0.00 0.73 0.00 76 1054.1
20260904181903 64 270 5.0 0.0 0.00 0.73 0.00 76 1054.0
20260904181749 64 0 0.0 0.0 0.00 0.73 0.00 76 1053.9
20260904181621 64 247 14.0 0.0 0.00 0.73 0.00 76 1054.0
20260904181508 64 292 11.0 0.0 0.00 0.73 0.00 76 1054.0
20260904181354 64 247 6.0 0.0 0.00 0.73 0.00 75 1054.0
20260904181236 64 337 12.0 0.0 0.00 0.73 0.00 75 1054.0
20260904181129 64 270 16.0 0.0 0.00 0.73 0.00 75 1054.0
20260904181024 64 0 9.0 0.0 0.00 0.73 0.00 75 1054.0
20260904180911 65 292 10.0 0.0 0.00 0.73 0.00 75 1053.9
20260904180805 65 0 15.0 0.0 0.00 0.73 0.00 76 1053.9
20260904180644 65 315 10.0 0.0 0.00 0.73 0.00 76 1053.9
20260904180531 65 270 6.0 0.0 0.00 0.73 0.00 76 1053.7
20260904180402 65 292 11.0 0.0 0.00 0.73 0.00 76 1053.8
20260904180249 65 247 4.0 0.0 0.00 0.73 0.00 76 1053.8
20260904180135 65 270 8.0 0.0 0.00 0.73 0.00 76 1053.8
20260904180024 65 315 0.0 0.0 0.00 0.73 0.00 76 1053.8
20260904175910 65 315 0.0 0.0 0.00 0.73 0.00 76 1053.8
20260904175807 65 315 16.0 0.0 0.00 0.73 0.00 76 1053.8
20260904175659 65 292 6.0 0.0 0.00 0.73 0.00 76 1053.7
20260904175546 65 270 4.0 0.0 0.00 0.73 0.00 75 1053.8
20260904175433 65 270 8.0 0.0 0.00 0.73 0.00 74 1053.7
20260904175328 65 292 5.0 0.0 0.00 0.73 0.00 74 1053.7
20260904175217 65 315 7.0 0.0 0.00 0.73 0.00 74 1053.7
20260904175110 65 315 16.0 0.0 0.00 0.73 0.00 75 1053.7
20260904175005 65 270 11.0 0.0 0.00 0.73 0.00 75 1053.8
20260904174853 65 247 8.0 0.0 0.00 0.73 0.00 74 1053.7
20260904174747 65 270 6.0 0.0 0.00 0.73 0.00 74 1053.5
20260904174633 65 292 7.0 0.0 0.00 0.73 0.00 73 1053.5
20260904174521 65 270 21.0 0.0 0.00 0.73 0.00 74 1053.5
20260904174416 65 315 0.0 0.0 0.00 0.73 0.00 74 1053.6
20260904174310 65 315 12.0 0.0 0.00 0.73 0.00 75 1053.5
20260904174206 65 337 6.0 0.0 0.00 0.73 0.00 75 1053.6
20260904174100 65 22 6.0 0.0 0.00 0.73 0.00 74 1053.5
20260904173933 65 292 13.0 0.0 0.00 0.73 0.00 75 1053.5
20260904173828 65 337 15.0 0.0 0.00 0.73 0.00 75 1053.5
20260904173721 65 315 7.0 0.0 0.00 0.73 0.00 75 1053.6
20260904173608 65 315 5.0 0.0 0.00 0.73 0.00 75 1053.6
20260904173455 65 0 13.0 0.0 0.00 0.73 0.00 75 1053.5
20260904173350 65 292 6.0 0.0 0.00 0.73 0.00 74 1053.5
20260904173244 65 292 14.0 0.0 0.00 0.73 0.00 74 1053.4
20260904173134 65 315 6.0 0.0 0.00 0.73 0.00 74 1053.5
20260904173026 65 292 10.0 0.0 0.00 0.73 0.00 74 1053.4
20260904172916 65 270 11.0 0.0 0.00 0.73 0.00 73 1053.4
20260904172808 65 292 13.0 0.0 0.00 0.73 0.00 74 1053.4
20260904172656 65 337 7.0 0.0 0.00 0.73 0.00 73 1053.4
20260904172550 65 292 18.0 0.0 0.00 0.73 0.00 74 1053.4
20260904172438 65 337 0.0 0.0 0.00 0.73 0.00 73 1053.3
20260904172330 65 315 11.0 0.0 0.00 0.73 0.00 72 1053.4
20260904172209 65 315 4.0 0.0 0.00 0.73 0.00 72 1053.3
20260904172056 65 292 3.0 0.0 0.00 0.73 0.00 72 1053.3
20260904171951 65 315 14.0 0.0 0.00 0.73 0.00 72 1053.3
20260904171846 65 270 0.0 0.0 0.00 0.73 0.00 72 1053.3
20260904171725 65 270 2.0 0.0 0.00 0.73 0.00 71 1053.3
20260904171620 65 270 12.0 0.0 0.00 0.73 0.00 71 1053.4
20260904171514 65 292 6.0 0.0 0.00 0.73 0.00 72 1053.4
20260904171402 65 270 7.0 0.0 0.00 0.73 0.00 72 1053.3
20260904171256 65 337 4.0 0.0 0.00 0.73 0.00 72 1053.3
20260904171143 65 337 11.0 0.0 0.00 0.73 0.00 72 1053.2
20260904171038 65 315 15.0 0.0 0.00 0.73 0.00 72 1053.3
20260904170923 65 22 0.0 0.0 0.00 0.73 0.00 71 1053.2
20260904170803 65 315 13.0 0.0 0.00 0.73 0.00 71 1053.1
20260904170649 65 292 6.0 0.0 0.00 0.73 0.00 73 1053.2
20260904170527 65 292 9.0 0.0 0.00 0.73 0.00 74 1053.3
20260904170417 65 292 6.0 0.0 0.00 0.73 0.00 74 1053.1
20260904170309 65 315 10.0 0.0 0.00 0.73 0.00 73 1053.1
20260904170156 65 292 0.0 0.0 0.00 0.73 0.00 73 1053.2
20260904170050 65 337 7.0 0.0 0.00 0.73 0.00 72 1053.1
20260904165945 65 337 6.0 0.0 0.00 0.73 0.00 71 1053.1
20260904165838 65 315 15.0 0.0 0.00 0.73 0.00 71 1053.1
20260904165718 65 292 5.0 0.0 0.00 0.73 0.00 71 1053.1
20260904165604 65 315 5.0 0.0 0.00 0.73 0.00 71 1053.0
20260904165451 66 270 6.0 0.0 0.00 0.73 0.00 72 1053.1
20260904165346 66 315 6.0 0.0 0.00 0.73 0.00 73 1053.0
20260904165235 66 0 6.0 0.0 0.00 0.73 0.00 73 1053.0
20260904165127 66 315 9.0 0.0 0.00 0.73 0.00 72 1053.0
20260904165007 66 315 7.0 0.0 0.00 0.73 0.00 72 1053.0
20260904164853 66 315 9.0 0.0 0.00 0.73 0.00 72 1053.0
20260904164733 66 292 21.0 0.0 0.00 0.73 0.00 72 1052.9
20260904164627 66 270 9.0 0.0 0.00 0.73 0.00 72 1052.9
20260904164516 66 337 19.0 0.0 0.00 0.73 0.00 72 1052.9
20260904164411 66 270 9.0 0.0 0.00 0.73 0.00 72 1052.9
20260904164304 66 0 0.0 0.0 0.00 0.73 0.00 72 1053.0
20260904164151 66 270 10.0 0.0 0.00 0.73 0.00 72 1053.0
20260904164047 66 292 6.0 0.0 0.00 0.73 0.00 72 1052.9
20260904163940 66 0 14.0 0.0 0.00 0.73 0.00 71 1052.9
20260904163828 66 292 5.0 0.0 0.00 0.73 0.00 71 1052.9
20260904163714 66 292 12.0 0.0 0.00 0.73 0.00 71 1052.9
20260904163602 66 315 21.0 0.0 0.00 0.73 0.00 72 1052.9
20260904163449 66 270 14.0 0.0 0.00 0.73 0.00 72 1053.0
20260904163327 66 315 15.0 0.0 0.00 0.73 0.00 71 1053.0
20260904163214 66 315 8.0 0.0 0.00 0.73 0.00 72 1052.9
20260904163101 66 315 11.0 0.0 0.00 0.73 0.00 71 1052.9
20260904162956 66 270 8.0 0.0 0.00 0.73 0.00 71 1052.8
20260904162837 66 315 4.0 0.0 0.00 0.73 0.00 71 1052.8
20260904162709 66 0 9.0 0.0 0.00 0.73 0.00 71 1052.8
20260904162556 66 315 2.0 0.0 0.00 0.73 0.00 71 1052.8
20260904162440 66 315 6.0 0.0 0.00 0.73 0.00 71 1052.7
20260904162301 66 180 6.0 0.0 0.00 0.73 0.00 71 1052.8
20260904162142 66 247 4.0 0.0 0.00 0.73 0.00 72 1052.8
20260904162027 66 270 7.0 0.0 0.00 0.73 0.00 72 1052.8
20260904161906 66 292 5.0 0.0 0.00 0.73 0.00 71 1052.8
20260904161801 66 292 8.0 0.0 0.00 0.73 0.00 71 1052.8
20260904161656 66 247 13.0 0.0 0.00 0.73 0.00 72 1052.8
20260904161535 66 247 18.0 0.0 0.00 0.73 0.00 72 1052.8
20260904161430 66 292 11.0 0.0 0.00 0.73 0.00 72 1052.9
20260904161319 66 337 10.0 0.0 0.00 0.73 0.00 71 1052.9
20260904161212 66 315 20.0 0.0 0.00 0.73 0.00 71 1052.7
20260904161106 66 270 16.0 0.0 0.00 0.73 0.00 72 1052.8
20260904160953 66 292 9.0 0.0 0.00 0.73 0.00 71 1052.9
20260904160849 66 315 3.0 0.0 0.00 0.73 0.00 71 1052.7
20260904160744 66 337 8.0 0.0 0.00 0.73 0.00 72 1052.7
20260904160631 66 315 6.0 0.0 0.00 0.73 0.00 72 1052.7
20260904160517 66 270 10.0 0.0 0.00 0.73 0.00 72 1052.8
20260904160412 66 292 7.0 0.0 0.00 0.73 0.00 72 1052.8
20260904160252 66 292 4.0 0.0 0.00 0.73 0.00 71 1052.7
20260904160146 66 270 8.0 0.0 0.00 0.73 0.00 71 1052.7
20260904160033 66 292 14.0 0.0 0.00 0.73 0.00 71 1052.8
20260904155922 66 292 7.0 0.0 0.00 0.73 0.00 72 1052.8
20260904155813 66 22 4.0 0.0 0.00 0.73 0.00 72 1052.7
20260904155703 66 292 14.0 0.0 0.00 0.73 0.00 72 1052.8
20260904155554 66 292 22.0 0.0 0.00 0.73 0.00 73 1052.7
20260904155438 66 315 10.0 0.0 0.00 0.73 0.00 73 1052.8
20260904155311 66 292 9.0 0.0 0.00 0.73 0.00 72 1052.8
20260904155203 66 292 9.0 0.0 0.00 0.73 0.00 72 1052.6
20260904155048 66 292 7.0 0.0 0.00 0.73 0.00 72 1052.7
20260904154918 66 270 10.0 0.0 0.00 0.73 0.00 72 1052.7
20260904154803 66 315 7.0 0.0 0.00 0.73 0.00 72 1052.7
20260904154646 66 337 16.0 0.0 0.00 0.73 0.00 72 1052.6
20260904154520 66 315 9.0 0.0 0.00 0.73 0.00 71 1052.6
20260904154415 66 270 12.0 0.0 0.00 0.73 0.00 72 1052.6
20260904154300 66 247 21.0 0.0 0.00 0.73 0.00 72 1052.6
20260904154138 67 270 12.0 0.0 0.00 0.73 0.00 73 1052.6
20260904154016 67 337 6.0 0.0 0.00 0.73 0.00 74 1052.5
20260904153847 67 337 9.0 0.0 0.00 0.73 0.00 75 1052.5
20260904153727 67 292 3.0 0.0 0.00 0.73 0.00 74 1052.6
20260904153623 67 315 17.0 0.0 0.00 0.73 0.00 75 1052.6
20260904153518 67 315 12.0 0.0 0.00 0.73 0.00 75 1052.5
20260904153412 67 270 19.0 0.0 0.00 0.73 0.00 75 1052.4
20260904153258 67 270 12.0 0.0 0.00 0.73 0.00 75 1052.3
20260904153144 67 315 7.0 0.0 0.00 0.73 0.00 75 1052.4
20260904153033 67 292 5.0 0.0 0.00 0.73 0.00 75 1052.3
20260904152921 67 0 5.0 0.0 0.00 0.73 0.00 75 1052.4
20260904152813 67 270 7.0 0.0 0.00 0.73 0.00 75 1052.3
20260904152653 67 270 6.0 0.0 0.00 0.73 0.00 75 1052.2
20260904152547 67 292 11.0 0.0 0.00 0.73 0.00 75 1052.2
20260904152442 67 337 7.0 0.0 0.00 0.73 0.00 75 1052.1
20260904152328 67 0 6.0 0.0 0.00 0.73 0.00 78 1052.2
20260904152200 67 0 11.0 0.0 0.00 0.73 0.00 78 1051.9
20260904152055 67 315 6.0 0.0 0.00 0.73 0.00 77 1051.9
20260904151933 67 292 5.0 0.0 0.00 0.73 0.00 76 1052.0
20260904151812 67 292 20.0 0.0 0.00 0.73 0.00 76 1052.0
20260904151646 67 292 17.0 0.0 0.00 0.73 0.00 76 1052.1
20260904151540 67 315 5.0 0.0 0.00 0.73 0.00 78 1052.1
20260904151433 67 315 4.0 0.0 0.00 0.73 0.00 78 1052.1
20260904151314 67 315 2.0 0.0 0.00 0.73 0.00 77 1052.0
20260904151200 67 292 13.0 0.0 0.00 0.73 0.00 77 1051.9
20260904151053 67 292 15.0 0.0 0.00 0.73 0.00 77 1052.0
20260904150933 67 337 5.0 0.0 0.00 0.73 0.00 77 1052.0
20260904150827 67 337 16.0 0.0 0.00 0.73 0.00 77 1052.1
20260904150715 67 270 8.0 0.0 0.00 0.73 0.00 78 1051.9
20260904150600 67 292 11.0 0.0 0.00 0.73 0.00 78 1051.8
20260904150439 67 292 11.0 0.0 0.00 0.73 0.00 79 1051.9
20260904150319 67 315 11.0 0.0 0.00 0.73 0.00 80 1051.9
20260904150216 67 270 2.0 0.0 0.00 0.73 0.00 80 1051.8
20260904150059 67 315 5.0 0.0 0.00 0.73 0.00 80 1051.8
20260904145938 67 270 114.0 0.0 0.00 0.73 0.00 79 1051.7
20260904145310 67 270 114.0 0.0 0.00 0.73 0.00 79 1051.8
20260904144646 67 270 114.0 0.0 0.00 0.73 0.00 81 1051.8
20260904144015 67 270 114.0 0.0 0.00 0.73 0.00 82 1051.5
20260904143345 67 270 114.0 0.0 0.00 0.73 0.00 82 1051.5
20260904142716 67 270 114.0 0.0 0.00 0.73 0.00 82 1051.3
20260904142044 67 270 114.0 0.0 0.00 0.73 0.00 83 1051.2
20260904141415 67 270 114.0 0.0 0.00 0.73 0.00 84 1051.1
20260904140745 67 270 114.0 0.0 0.00 0.73 0.00 85 1050.9
20260904140126 66 270 114.0 0.0 0.00 0.73 0.00 86 1050.8
20260904135541 66 270 114.0 0.0 0.00 0.73 0.00 86 1050.8
20260904134911 66 270 114.0 0.0 0.02 0.73 0.00 87 1050.7
20260904134241 66 270 114.0 0.0 0.02 0.73 0.00 87 1050.6
20260904133610 66 270 114.0 0.0 0.02 0.73 0.00 89 1050.5
20260904132917 65 270 114.0 0.0 0.02 0.73 0.00 91 1050.4
20260904132246 65 270 114.0 0.0 0.02 0.73 0.00 92 1050.5
20260904131637 64 270 114.0 0.0 0.02 0.73 0.00 92 1050.4
20260904130957 63 270 114.0 0.0 0.02 0.73 0.00 92 1050.5
20260904130349 64 270 114.0 0.0 0.02 0.73 0.00 92 1050.4
20260904125741 64 270 114.0 0.0 0.02 0.73 0.00 91 1050.3
20260904125119 64 270 114.0 0.0 0.00 0.71 0.00 89 1050.3
20260904124505 65 270 114.0 0.0 0.00 0.71 0.00 87 1050.3
20260904123827 65 270 114.0 0.0 0.00 0.71 0.00 87 1050.2
20260904123150 65 270 114.0 0.0 0.00 0.71 0.00 87 1050.2
20260904122519 65 270 114.0 0.0 0.00 0.71 0.00 88 1050.2
20260904121906 66 270 114.0 0.0 0.00 0.71 0.00 89 1049.9
20260904121227 66 270 114.0 0.0 0.00 0.71 0.00 90 1050.3
20260904120606 66 270 114.0 0.0 0.00 0.71 0.00 91 1050.0
20260904115944 66 270 114.0 0.0 0.00 0.71 0.00 92 1050.0
20260904115336 66 270 114.0 0.0 0.00 0.71 0.00 93 1050.1
20260904114721 66 270 114.0 0.0 0.00 0.71 0.00 93 1049.0
20260904114107 65 270 114.0 0.0 0.00 0.71 0.00 93 1049.0
20260904113454 65 270 114.0 0.0 0.00 0.71 0.00 92 1049.8
20260904112840 66 270 114.0 0.0 0.00 0.71 0.00 92 1049.7
20260904112226 66 270 114.0 0.0 0.00 0.71 0.00 92 1049.8
20260904111611 66 270 114.0 0.0 0.00 0.71 0.00 92 1050.2
20260904111005 66 270 114.0 0.0 0.00 0.71 0.00 92 1050.3
20260904110327 66 270 114.0 0.0 0.00 0.71 0.00 92 1050.4
20260904105656 66 270 114.0 0.0 0.00 0.71 0.00 93 1050.0
20260904105035 66 270 114.0 0.0 0.00 0.71 0.00 93 1049.9
20260904104412 66 270 114.0 0.0 0.00 0.71 0.00 94 1049.6
20260904103752 65 270 114.0 0.0 0.00 0.71 0.00 94 1049.8
20260904103146 65 270 114.0 0.0 0.00 0.71 0.00 94 1049.9
20260904102531 65 270 114.0 0.0 0.00 0.71 0.00 94 1050.1
20260904101926 64 270 114.0 0.0 0.00 0.71 0.00 95 1049.8
20260904101303 64 270 114.0 0.0 0.04 0.71 0.00 95 1049.8
20260904100706 64 270 114.0 0.0 0.06 0.71 0.00 95 1049.7
20260904100036 64 270 114.0 0.0 0.06 0.71 0.00 95 1049.8
20260904095422 64 270 114.0 0.0 0.06 0.73 0.00 95 1049.8
20260904094802 64 270 114.0 0.0 0.08 0.73 0.00 95 1049.8
20260904094203 64 270 114.0 0.0 0.08 0.73 0.00 95 1049.7
20260904093558 65 270 114.0 0.0 0.08 0.73 0.00 95 1049.9
20260904093017 66 270 114.0 0.0 0.10 0.73 0.00 94 1049.8
20260904092419 66 270 114.0 0.0 0.10 0.73 0.00 95 1049.6
20260904091757 66 270 114.0 0.0 0.10 0.71 0.00 95 1048.9
20260904091152 66 270 114.0 0.0 0.06 0.67 0.00 95 1048.7
20260904090529 66 270 114.0 0.0 0.08 0.67 0.00 95 1048.9
20260904085907 66 270 114.0 0.0 0.10 0.67 0.00 95 1049.0
20260904085310 66 270 114.0 0.0 0.10 0.65 0.00 95 1048.8
20260904084657 66 270 114.0 0.0 0.10 0.65 0.00 95 1048.9
20260904084042 66 270 114.0 0.0 0.12 0.65 0.00 94 1048.9
20260904083445 66 270 114.0 0.0 0.14 0.65 0.00 94 1049.1
20260904082847 66 270 114.0 0.0 0.14 0.63 0.00 94 1049.1
20260904082234 65 270 114.0 0.0 0.14 0.61 0.00 94 1048.9
20260904081605 64 270 114.0 0.0 0.14 0.61 0.00 94 1048.9
20260904080951 64 270 114.0 0.0 0.16 0.61 0.00 94 1049.0
20260904080321 64 270 114.0 0.0 0.31 0.59 0.00 94 1049.4
20260904075658 64 270 114.0 0.0 0.33 0.55 0.00 94 1049.5
20260904075021 64 270 114.0 0.0 0.37 0.55 0.00 94 1049.5
20260904074350 64 270 114.0 0.0 0.41 0.53 0.00 93 1049.6
20260904073721 64 270 114.0 0.0 0.41 0.51 0.00 93 1049.9
20260904073050 64 270 114.0 0.0 0.43 0.49 0.00 93 1050.0
20260904072421 64 270 114.0 0.0 0.41 0.47 0.00 93 1050.2
20260904071751 64 270 114.0 0.0 0.43 0.47 0.00 93 1050.4
20260904071121 64 270 114.0 0.0 0.39 0.43 0.00 93 1050.5
20260904070451 64 270 114.0 0.0 0.26 0.31 0.00 93 1051.0
20260904065820 64 270 114.0 0.0 0.18 0.22 0.00 92 1050.7
20260904065151 64 270 114.0 0.0 0.16 0.18 0.00 92 1050.5
20260904064520 64 270 114.0 0.0 0.12 0.14 0.00 92 1050.8
20260904063851 64 270 114.0 0.0 0.08 0.10 0.00 91 1050.7
20260904063233 64 270 114.0 0.0 0.04 0.06 0.00 90 1050.9
20260904062604 65 270 114.0 0.0 0.04 0.06 0.00 90 1050.7
20260904061949 65 270 114.0 0.0 0.02 0.04 0.00 90 1051.4
20260904061318 65 270 114.0 0.0 0.02 0.04 0.00 90 1051.2
20260904060648 66 270 114.0 0.0 0.02 0.04 0.00 92 1051.2
20260904060033 66 270 114.0 0.0 0.02 0.04 0.00 92 1051.4
20260904055426 66 270 114.0 0.0 0.02 0.04 0.00 92 1051.5
20260904054830 66 270 114.0 0.0 0.00 0.02 0.00 92 1051.7
20260904054227 66 270 114.0 0.0 0.00 0.02 0.00 92 1051.9
20260904053607 66 270 114.0 0.0 0.00 0.02 0.00 92 1051.9
20260904052948 66 270 114.0 0.0 0.00 0.02 0.00 91 1052.0
20260904052346 66 270 114.0 0.0 0.00 0.02 0.00 91 1051.9
20260904051759 66 270 114.0 0.0 0.00 0.02 0.00 91 1051.9
20260904051158 66 270 114.0 0.0 0.00 0.02 0.00 91 1051.9
20260904050542 66 270 114.0 0.0 0.00 0.02 0.00 90 1052.1
20260904045937 66 270 9.0 0.0 0.00 0.02 0.00 90 1052.2
20260904045824 66 292 6.0 0.0 0.00 0.02 0.00 90 1052.0
20260904045721 66 270 6.0 0.0 0.00 0.02 0.00 90 1052.1
20260904045615 66 247 4.0 0.0 0.00 0.02 0.00 90 1052.2
20260904045509 66 292 6.0 0.0 0.00 0.02 0.00 90 1052.3
20260904045403 66 315 10.0 0.0 0.00 0.02 0.00 90 1052.3
20260904045258 66 270 12.0 0.0 0.00 0.02 0.00 90 1052.3
20260904045145 66 270 6.0 0.0 0.00 0.02 0.00 89 1052.2
20260904045040 66 270 12.0 0.0 0.00 0.02 0.00 89 1052.1
20260904044928 66 270 9.0 0.0 0.00 0.02 0.00 89 1052.1
20260904044821 67 292 13.0 0.0 0.00 0.02 0.00 89 1052.0
20260904044707 67 292 9.0 0.0 0.00 0.02 0.00 89 1052.1
20260904044554 67 270 19.0 0.0 0.00 0.02 0.00 89 1052.1
20260904044447 66 292 8.0 0.0 0.00 0.02 0.00 89 1052.2
20260904044342 66 270 3.0 0.0 0.00 0.02 0.00 89 1052.2
20260904044236 67 270 13.0 0.0 0.00 0.02 0.00 89 1052.2
20260904044122 67 270 6.0 0.0 0.00 0.02 0.00 89 1052.2
20260904043959 67 225 3.0 0.0 0.00 0.02 0.00 89 1052.3
20260904043845 67 270 15.0 0.0 0.00 0.02 0.00 89 1052.3
20260904043722 67 247 8.0 0.0 0.00 0.02 0.00 89 1052.3
20260904043610 67 247 15.0 0.0 0.00 0.02 0.00 89 1052.3
20260904043455 67 270 11.0 0.0 0.00 0.02 0.00 89 1052.3
20260904043336 67 247 7.0 0.0 0.00 0.02 0.00 89 1052.3
20260904043225 67 270 10.0 0.0 0.00 0.02 0.00 88 1052.4
20260904043117 67 270 6.0 0.0 0.00 0.02 0.00 88 1052.4
20260904042958 67 202 2.0 0.0 0.00 0.02 0.00 88 1052.3
20260904042853 67 180 7.0 0.0 0.00 0.02 0.00 88 1052.5
20260904042746 67 247 7.0 0.0 0.00 0.02 0.00 88 1052.4
20260904042626 67 270 7.0 0.0 0.00 0.02 0.00 88 1052.4
20260904042520 67 270 11.0 0.0 0.00 0.02 0.00 88 1052.4
20260904042407 67 247 9.0 0.0 0.00 0.02 0.00 88 1052.5
20260904042305 67 270 13.0 0.0 0.00 0.02 0.00 88 1052.5
20260904042140 67 202 8.0 0.0 0.00 0.02 0.00 88 1052.5
20260904042019 67 247 16.0 0.0 0.00 0.02 0.00 88 1052.5
20260904041905 67 270 9.0 0.0 0.00 0.02 0.00 88 1052.5
20260904041756 67 247 11.0 0.0 0.00 0.02 0.00 88 1052.6
20260904041649 67 270 15.0 0.0 0.00 0.02 0.00 88 1052.6
20260904041535 67 270 12.0 0.0 0.00 0.02 0.00 88 1052.7
20260904041415 67 270 3.0 0.0 0.00 0.02 0.00 88 1052.6
20260904041307 67 202 12.0 0.0 0.00 0.02 0.00 88 1052.6
20260904041156 67 292 9.0 0.0 0.00 0.02 0.00 88 1052.6
20260904041050 67 270 14.0 0.0 0.00 0.02 0.00 88 1052.6
20260904040928 67 247 6.0 0.0 0.00 0.02 0.00 88 1052.5
20260904040810 67 270 9.0 0.0 0.00 0.02 0.00 88 1052.5
20260904040702 67 270 8.0 0.0 0.00 0.02 0.00 88 1052.6
20260904040541 67 247 4.0 0.0 0.00 0.02 0.00 88 1052.6
20260904040421 67 270 9.0 0.0 0.00 0.02 0.00 88 1052.6
20260904040315 67 225 12.0 0.0 0.00 0.02 0.00 88 1052.7
20260904040205 67 270 7.0 0.0 0.00 0.02 0.00 88 1052.8
20260904040057 67 202 2.0 0.0 0.00 0.02 0.00 88 1052.7
20260904035943 67 202 8.0 0.0 0.00 0.02 0.00 88 1052.7
20260904035824 67 247 7.0 0.0 0.00 0.02 0.00 88 1052.7
20260904035718 67 247 2.0 0.0 0.00 0.02 0.00 88 1052.7
20260904035604 67 225 6.0 0.0 0.00 0.02 0.00 88 1052.7
20260904035452 67 247 5.0 0.0 0.00 0.02 0.00 88 1052.7
20260904035345 67 247 13.0 0.0 0.00 0.02 0.00 88 1052.7
20260904035233 67 247 4.0 0.0 0.00 0.02 0.00 88 1052.7
20260904035121 67 225 3.0 0.0 0.00 0.02 0.00 88 1052.7
20260904035007 67 270 8.0 0.0 0.00 0.02 0.00 88 1052.7
20260904034853 67 225 8.0 0.0 0.00 0.02 0.00 88 1052.7
20260904034539 67 157 114.0 0.0 0.00 0.02 0.00 89 1052.8
20260904033909 67 157 114.0 0.0 0.00 0.02 0.00 90 1052.8
20260904033247 67 157 114.0 0.0 0.00 0.02 0.00 91 1052.9
20260904032641 67 157 114.0 0.0 0.00 0.02 0.00 92 1053.0
20260904032009 66 157 114.0 0.0 0.00 0.02 0.00 92 1053.2
20260904031407 66 157 114.0 0.0 0.00 0.02 0.00 92 1053.2
20260904030753 66 157 114.0 0.0 0.00 0.02 0.00 93 1053.3
20260904030142 66 157 114.0 0.0 0.00 0.02 0.00 93 1053.5
20260904025542 66 157 114.0 0.0 0.00 0.02 0.00 93 1053.4
20260904024920 66 157 114.0 0.0 0.00 0.02 0.00 93 1053.6
20260904024314 66 157 114.0 0.0 0.00 0.02 0.00 93 1053.7
20260904023644 66 157 114.0 0.0 0.00 0.02 0.00 93 1053.6
20260904023024 66 157 114.0 0.0 0.00 0.02 0.00 93 1053.7
20260904022401 66 157 114.0 0.0 0.00 0.02 0.00 93 1054.0
20260904021739 66 157 114.0 0.0 0.00 0.02 0.00 93 1054.3
20260904021117 66 157 114.0 0.0 0.00 0.02 0.00 93 1054.2
20260904020504 66 157 114.0 0.0 0.00 0.02 0.00 93 1054.2
20260904015905 66 157 114.0 0.0 0.00 0.02 0.00 93 1054.3
20260904015244 65 157 114.0 0.0 0.00 0.02 0.00 93 1054.3
20260904014622 65 247 0.0 0.0 0.00 0.02 0.00 93 1054.4
20260904014350 65 225 13.0 0.0 0.00 0.02 0.00 93 1054.5
20260904014244 65 202 6.0 0.0 0.00 0.02 0.00 93 1054.4
20260904014138 65 202 5.0 0.0 0.00 0.02 0.00 93 1054.5
20260904014025 65 180 7.0 0.0 0.00 0.02 0.00 93 1054.5
20260904013921 65 202 0.0 0.0 0.00 0.02 0.00 93 1054.6
20260904013815 65 202 7.0 0.0 0.00 0.02 0.00 93 1054.6
20260904013710 65 225 9.0 0.0 0.00 0.02 0.00 93 1054.6
20260904013604 65 157 4.0 0.0 0.00 0.02 0.00 93 1054.7
20260904013435 65 180 5.0 0.0 0.00 0.02 0.00 93 1054.7
20260904013322 65 157 5.0 0.0 0.00 0.02 0.00 93 1054.8
20260904013217 65 225 8.0 0.0 0.00 0.02 0.00 93 1054.8
20260904013055 65 202 5.0 0.0 0.00 0.02 0.00 93 1054.9
20260904012935 65 180 6.0 0.0 0.00 0.02 0.00 93 1054.9
20260904012822 65 270 4.0 0.0 0.00 0.02 0.00 93 1054.9
20260904012716 65 225 7.0 0.0 0.00 0.02 0.00 93 1055.0
20260904012555 65 180 4.0 0.0 0.00 0.02 0.00 93 1055.2
20260904012442 65 180 0.0 0.0 0.00 0.02 0.00 93 1055.1
20260904012330 65 202 3.0 0.0 0.00 0.02 0.00 93 1055.1
20260904012224 65 180 7.0 0.0 0.00 0.02 0.00 93 1055.1
20260904012111 65 180 4.0 0.0 0.00 0.02 0.00 93 1055.2
20260904011949 65 202 7.0 0.0 0.00 0.02 0.00 93 1055.2
20260904011836 65 202 6.0 0.0 0.00 0.02 0.00 93 1055.1
20260904011715 65 202 4.0 0.0 0.00 0.02 0.00 93 1055.2
20260904011603 65 180 6.0 0.0 0.00 0.02 0.00 93 1055.3
20260904011450 65 202 7.0 0.0 0.00 0.02 0.00 93 1055.2
20260904011343 65 225 7.0 0.0 0.00 0.02 0.00 93 1055.3
20260904011225 65 225 6.0 0.0 0.00 0.02 0.00 93 1055.3
20260904011118 65 202 10.0 0.0 0.00 0.02 0.00 93 1055.3
20260904011005 65 180 2.0 0.0 0.00 0.02 0.00 93 1055.4
20260904010900 65 225 4.0 0.0 0.00 0.02 0.00 93 1055.4
20260904010756 65 202 9.0 0.0 0.00 0.02 0.00 93 1055.5
20260904010650 65 202 4.0 0.0 0.00 0.02 0.00 93 1055.5
20260904010545 65 180 0.0 0.0 0.00 0.02 0.00 93 1055.5
20260904010432 65 202 10.0 0.0 0.00 0.02 0.00 93 1055.5
20260904010312 65 202 3.0 0.0 0.00 0.02 0.00 93 1055.6
20260904005946 65 247 7.0 0.0 0.00 0.02 0.00 93 1055.7
20260904005835 65 202 5.0 0.0 0.00 0.02 0.00 92 1055.5
20260904005729 65 180 0.0 0.0 0.00 0.02 0.00 92 1055.6
20260904005616 65 247 2.0 0.0 0.00 0.02 0.00 93 1055.7
20260904005513 65 180 0.0 0.0 0.00 0.02 0.00 92 1055.7
20260904005358 65 247 4.0 0.0 0.00 0.02 0.00 92 1055.8
20260904005245 65 157 0.0 0.0 0.00 0.02 0.00 92 1055.9
20260904005139 65 202 0.0 0.0 0.00 0.02 0.00 92 1055.9
20260904005034 65 225 0.0 0.0 0.00 0.02 0.00 92 1055.9
20260904004928 65 180 3.0 0.0 0.00 0.02 0.00 92 1055.9
20260904004813 65 202 5.0 0.0 0.00 0.02 0.00 92 1055.9
20260904004702 65 157 6.0 0.0 0.00 0.02 0.00 92 1056.0
20260904004553 65 180 7.0 0.0 0.00 0.02 0.00 92 1056.0
20260904004439 65 202 6.0 0.0 0.00 0.02 0.00 92 1056.0
20260904004325 64 202 0.0 0.0 0.00 0.02 0.00 92 1056.0
20260904004219 64 180 0.0 0.0 0.00 0.02 0.00 92 1056.0
20260904004113 64 180 0.0 0.0 0.00 0.02 0.00 92 1056.0
20260904004007 64 180 0.0 0.0 0.00 0.02 0.00 92 1056.1
20260904003901 64 180 9.0 0.0 0.00 0.02 0.00 92 1056.1
20260904003756 64 180 3.0 0.0 0.00 0.02 0.00 92 1056.1
20260904003651 64 180 0.0 0.0 0.00 0.02 0.00 92 1056.1
20260904003545 64 225 4.0 0.0 0.00 0.02 0.00 91 1056.0
20260904003440 64 202 6.0 0.0 0.00 0.02 0.00 91 1056.2
20260904003334 64 202 0.0 0.0 0.00 0.02 0.00 91 1056.2
20260904003221 64 180 0.0 0.0 0.00 0.02 0.00 91 1056.1
20260904003108 64 180 0.0 0.0 0.00 0.02 0.00 91 1056.2
20260904002955 64 202 4.0 0.0 0.00 0.02 0.00 91 1056.2
20260904002842 64 202 6.0 0.0 0.00 0.02 0.00 91 1056.2
20260904002737 64 202 4.0 0.0 0.00 0.02 0.00 91 1056.2
20260904002632 64 202 3.0 0.0 0.00 0.02 0.00 91 1056.2
20260904002525 64 202 4.0 0.0 0.00 0.02 0.00 91 1056.1
20260904002420 64 180 4.0 0.0 0.00 0.02 0.00 91 1056.2
20260904002313 64 180 9.0 0.0 0.00 0.02 0.00 91 1056.3
20260904002152 64 202 10.0 0.0 0.00 0.02 0.00 91 1056.3
20260904002046 64 202 5.0 0.0 0.00 0.02 0.00 91 1056.4
20260904001932 64 225 5.0 0.0 0.00 0.02 0.00 91 1056.3
20260904001817 64 202 4.0 0.0 0.00 0.02 0.00 91 1056.4
20260904001655 64 180 0.0 0.0 0.00 0.02 0.00 91 1056.4
20260904001542 64 247 0.0 0.0 0.00 0.02 0.00 91 1056.5
20260904001429 64 247 0.0 0.0 0.00 0.02 0.00 91 1056.4
20260904001325 64 225 0.0 0.0 0.00 0.02 0.00 91 1056.5
20260904001218 64 157 0.0 0.0 0.00 0.02 0.00 91 1056.4
20260904001113 64 225 1.0 0.0 0.00 0.02 0.00 91 1056.4
20260904001006 64 225 6.0 0.0 0.00 0.02 0.00 91 1056.4
20260904000854 64 202 5.0 0.0 0.00 0.02 0.00 91 1056.4
20260904000749 64 202 0.0 0.0 0.00 0.02 0.00 91 1056.4
20260904000644 64 180 8.0 0.0 0.00 0.02 0.00 90 1056.4
20260904000537 64 202 7.0 0.0 0.00 0.02 0.00 90 1056.4
20260904000425 64 202 4.0 0.0 0.00 0.02 0.00 90 1056.5
20260904000312 64 202 0.0 0.0 0.00 0.02 0.00 90 1056.6
20260904000156 64 202 2.0 0.0 0.00 0.02 0.00 90 1056.7
20260904000044 64 202 0.0 0.0 0.00 0.02 0.00 90 1056.7
20260903235930 64 180 3.0 0.0 0.00 0.02 0.00 90 1056.7
20260903235817 64 225 4.0 0.0 0.00 0.02 0.00 90 1056.7
20260903235712 64 225 4.0 0.0 0.00 0.02 0.00 90 1056.7
20260903235558 64 202 0.0 0.0 0.00 0.02 0.00 90 1056.7
20260903235446 64 225 2.0 0.0 0.00 0.02 0.00 90 1056.7
20260903235332 64 180 4.0 0.0 0.00 0.02 0.00 89 1056.7
20260903235219 64 202 3.0 0.0 0.00 0.02 0.00 89 1056.7
20260903235058 64 225 6.0 0.0 0.00 0.02 0.00 89 1056.8
20260903234929 64 202 5.0 0.0 0.00 0.02 0.00 89 1056.9
20260903234824 64 180 0.0 0.0 0.00 0.02 0.00 89 1056.9
20260903234710 64 180 2.0 0.0 0.00 0.02 0.00 89 1056.9
20260903234542 64 180 5.0 0.0 0.00 0.02 0.00 89 1056.9
20260903234436 64 180 3.0 0.0 0.00 0.02 0.00 89 1057.0
20260903234317 64 202 0.0 0.0 0.00 0.02 0.00 89 1057.0
20260903234210 64 180 5.0 0.0 0.00 0.02 0.00 89 1056.9
20260903234042 64 225 0.0 0.0 0.00 0.02 0.00 89 1056.9
20260903233936 64 180 4.0 0.0 0.00 0.02 0.00 89 1057.0
20260903233833 64 180 0.0 0.0 0.00 0.02 0.00 89 1056.9
20260903233728 64 202 0.0 0.0 0.00 0.02 0.00 89 1056.9
20260903233613 64 270 0.0 0.0 0.00 0.02 0.00 89 1057.1
20260903233452 64 202 0.0 0.0 0.00 0.02 0.00 89 1057.1
20260903233347 64 202 0.0 0.0 0.00 0.02 0.00 89 1057.2
20260903233227 64 180 0.0 0.0 0.00 0.02 0.00 89 1057.1
20260903233119 64 180 4.0 0.0 0.00 0.02 0.00 89 1057.2
20260903233000 64 202 0.0 0.0 0.00 0.02 0.00 89 1057.2
20260903232838 64 202 4.0 0.0 0.00 0.02 0.00 88 1057.3
20260903232715 64 202 0.0 0.0 0.00 0.02 0.00 88 1057.3
20260903232555 64 202 5.0 0.0 0.00 0.02 0.00 88 1057.2
20260903232434 64 202 0.0 0.0 0.00 0.02 0.00 88 1057.3
20260903232329 64 225 4.0 0.0 0.00 0.02 0.00 88 1057.3
20260903232207 64 225 0.0 0.0 0.00 0.02 0.00 88 1057.3
20260903232046 64 180 0.0 0.0 0.00 0.02 0.00 88 1057.3
20260903231925 64 225 0.0 0.0 0.00 0.02 0.00 88 1057.3
20260903231756 64 180 0.0 0.0 0.00 0.02 0.00 88 1057.3
20260903231637 64 247 0.0 0.0 0.00 0.02 0.00 88 1057.3
20260903231530 64 202 0.0 0.0 0.00 0.02 0.00 88 1057.4
20260903231416 64 157 0.0 0.0 0.00 0.02 0.00 88 1057.4
20260903231250 64 225 0.0 0.0 0.00 0.02 0.00 88 1057.5
20260903231143 64 157 2.0 0.0 0.00 0.02 0.00 88 1057.4
20260903231039 64 180 0.0 0.0 0.00 0.02 0.00 88 1057.5
20260903230933 64 247 0.0 0.0 0.00 0.02 0.00 88 1057.5
20260903230827 64 202 1.0 0.0 0.00 0.02 0.00 88 1057.5
20260903230657 64 157 5.0 0.0 0.00 0.02 0.00 88 1057.6
20260903230536 64 270 0.0 0.0 0.00 0.02 0.00 88 1057.6
20260903230407 64 202 3.0 0.0 0.00 0.02 0.00 88 1057.7
20260903230245 64 225 0.0 0.0 0.00 0.02 0.00 87 1057.7
20260903230127 64 247 0.0 0.0 0.00 0.02 0.00 87 1057.8
20260903230020 64 247 0.0 0.0 0.00 0.02 0.00 87 1057.7
20260903225909 64 247 0.0 0.0 0.00 0.02 0.00 87 1057.8
20260903225802 64 247 0.0 0.0 0.00 0.02 0.00 87 1057.7
20260903225657 64 270 0.0 0.0 0.00 0.02 0.00 87 1057.8
20260903225551 64 202 0.0 0.0 0.00 0.02 0.00 87 1057.8
20260903225438 64 225 0.0 0.0 0.00 0.02 0.00 87 1057.6
20260903225318 64 202 0.0 0.0 0.00 0.02 0.00 87 1057.8
20260903225214 64 225 0.0 0.0 0.00 0.02 0.00 87 1057.6
20260903225107 64 202 5.0 0.0 0.00 0.02 0.00 87 1057.6
20260903224937 64 225 5.0 0.0 0.00 0.02 0.00 86 1057.7
20260903224824 64 202 8.0 0.0 0.00 0.02 0.00 86 1057.8
20260903224712 64 202 0.0 0.0 0.00 0.02 0.00 86 1057.8
20260903224607 64 180 6.0 0.0 0.00 0.02 0.00 86 1057.6
20260903224455 64 225 0.0 0.0 0.00 0.02 0.00 86 1057.7
20260903224343 64 202 6.0 0.0 0.00 0.02 0.00 86 1057.7
20260903224235 64 247 0.0 0.0 0.00 0.02 0.00 86 1057.7
20260903224115 64 225 0.0 0.0 0.00 0.02 0.00 86 1057.7
20260903224003 64 247 0.0 0.0 0.00 0.02 0.00 86 1057.9
20260903223857 64 247 3.0 0.0 0.00 0.02 0.00 86 1057.8
20260903223743 64 292 7.0 0.0 0.00 0.02 0.00 86 1057.8
20260903223621 64 247 4.0 0.0 0.00 0.02 0.00 86 1057.9
20260903223502 64 270 4.0 0.0 0.00 0.02 0.00 86 1057.9
20260903223358 64 270 0.0 0.0 0.00 0.02 0.00 86 1057.9
20260903223250 64 270 0.0 0.0 0.00 0.02 0.00 86 1058.0
20260903223130 64 225 4.0 0.0 0.00 0.02 0.00 86 1057.9
20260903223016 64 225 5.0 0.0 0.00 0.02 0.00 86 1058.0
20260903222857 64 270 5.0 0.0 0.00 0.02 0.00 86 1057.9
20260903222750 64 270 5.0 0.0 0.00 0.02 0.00 86 1058.0
20260903222637 64 270 2.0 0.0 0.00 0.02 0.00 86 1058.0
20260903222531 64 202 2.0 0.0 0.00 0.02 0.00 86 1058.1
20260903222402 64 270 5.0 0.0 0.00 0.02 0.00 86 1058.0
20260903222249 64 247 4.0 0.0 0.00 0.02 0.00 86 1058.0
20260903222143 64 180 2.0 0.0 0.00 0.02 0.00 86 1058.0
20260903222013 64 225 0.0 0.0 0.00 0.02 0.00 86 1058.0
20260903221859 65 225 0.0 0.0 0.00 0.02 0.00 86 1058.1
20260903221753 65 225 0.0 0.0 0.00 0.02 0.00 86 1058.1
20260903221647 65 225 4.0 0.0 0.00 0.02 0.00 86 1058.1
20260903221539 65 270 0.0 0.0 0.00 0.02 0.00 86 1058.0
20260903221412 65 247 0.0 0.0 0.00 0.02 0.00 86 1058.0
20260903221307 65 247 5.0 0.0 0.00 0.02 0.00 86 1058.1
20260903221158 65 270 3.0 0.0 0.00 0.02 0.00 86 1058.1
20260903221044 65 270 6.0 0.0 0.00 0.02 0.00 86 1058.1
20260903220929 65 247 4.0 0.0 0.00 0.02 0.00 86 1058.0
20260903220817 65 247 3.0 0.0 0.00 0.02 0.00 86 1058.1
20260903220709 65 292 2.0 0.0 0.00 0.02 0.00 86 1058.2
20260903220547 65 247 6.0 0.0 0.00 0.02 0.00 86 1058.2
20260903220441 65 270 6.0 0.0 0.00 0.02 0.00 86 1058.2
20260903220335 65 247 8.0 0.0 0.00 0.02 0.00 86 1058.2
20260903220229 65 270 6.0 0.0 0.00 0.02 0.00 86 1058.2
20260903220123 65 270 0.0 0.0 0.00 0.02 0.00 86 1058.2
20260903220017 65 202 0.0 0.0 0.00 0.02 0.00 86 1058.3
20260903215911 65 225 2.0 0.0 0.00 0.02 0.00 86 1058.3
20260903215805 65 292 6.0 0.0 0.00 0.02 0.00 86 1058.3
20260903215700 65 270 5.0 0.0 0.00 0.02 0.00 86 1058.3
20260903215553 65 225 4.0 0.0 0.00 0.02 0.00 86 1058.3
20260903215447 65 225 4.0 0.0 0.00 0.02 0.00 86 1058.2
20260903215332 65 270 6.0 0.0 0.00 0.02 0.00 86 1058.2
20260903215213 65 270 0.0 0.0 0.00 0.02 0.00 86 1058.3
20260903215104 65 270 0.0 0.0 0.00 0.02 0.00 86 1058.2
20260903214949 65 270 0.0 0.0 0.00 0.02 0.00 86 1058.3
20260903214818 65 270 4.0 0.0 0.00 0.02 0.00 86 1058.2
20260903214705 65 270 0.0 0.0 0.00 0.02 0.00 86 1058.2
20260903214600 65 247 0.0 0.0 0.00 0.02 0.00 86 1058.2
20260903214453 65 247 9.0 0.0 0.00 0.02 0.00 86 1058.3